Location: Penton Mewsey
(51.2167°N, 1.5167°W)
Time: 04:29:19
(UTC+00:00)

SL-8 R/B - Pass Details

Date: 08 August 2020
Orbit: 657 x 667 km, 48.4° (Epoch: 22 September)

Event Time Altitude Azimuth Distance (km) Brightness Sun altitude
Rises 20:17:15 0° 279° (W) 3,005 8.5 -5.8°
Reaches altitude 10° 20:19:46 10° 270° (W) 2,091 7.2 -6.2°
Maximum altitude 20:24:05 33° 207° (SSW) 1,116 4.8 -6.7°
Drops below altitude 10° 20:28:23 10° 144° (SE) 2,084 5.7 -7.2°
Enters shadow 20:28:49 - 142° (SE) 2,234 5.8 -7.3°
